Tracking 17143 objects as of 27-May-2015
HD Live streaming from Space Station

ARIANE 44LP DEB

Track ARIANE 44LP DEB now!
10-day predictions
ARIANE 44LP DEB is classified as:


NORAD ID: 27662
Int'l Code: 1991-015N
Perigee: 368.4 km
Apogee: 24,360.7 km
Inclination: 6.1 °
Period: 425.4 minutes
Semi major axis: 18735 km
RCS: 0.2322 m2 (medium)
Launch date: March 2, 1991
Source: France (FR)

Note: This is SATELLITE DEBRIS
Your satellite tracking list
Your tracking list is empty





NASA's NSSDC Master Catalog

Two Line Element Set (TLE):
1 27662U 91015N   15146.30331684  .00007983  00000-0  69562-2 0  9991
2 27662 006.0743 300.9855 6402894 120.3701 317.4545 03.38535261186800

Source of the keplerian elements: AFSPC

N2YO: 275